Regional Weather Roundup
Issued by NWS

Home | Current Version | Previous Version | Graphics & Text | Print | Product List | Glossary On
Versions: 1 2 3 4 5 6 7 8 9 10 11 12 13 14 15 16 17 18 19 20 21 22 23 24 25 26 27 28 29 30 31 32 33 34 35 36 37 38 39 40 41 42 43 44 45 46 47 48 49 50
000
ASUS45 KCYS 130410
RWRWY

WYOMING REGIONAL WEATHER ROUNDUP
NATIONAL WEATHER SERVICE CHEYENNE WY
900 PM MST FRI FEB 12 2016

NOTE:  "FAIR" INDICATES FEW OR NO CLOUDS BELOW 12,000 FEET
WITH NO SIGNIFICANT WEATHER AND/OR OBSTRUCTIONS TO VISIBILITY.

WYZ001-130500-
YELLOWSTONE NATIONAL PARK

CITY           SKY/WX    TMP DP  RH WIND       PRES   REMARKS
LK YELLOWSTONE   N/A     27  19  72 CALM      30.28S
W YELLOWSTONE  NOT AVBL

$$
WYZ002>013-054>058-071-098>099-130500-
NORTHERN WYOMING

CITY           SKY/WX    TMP DP  RH WIND       PRES   REMARKS
JACKSON        NOT AVBL
CODY           FAIR      41  25  52 CALM      30.10F
GREYBULL       FAIR      39  29  67 SE5       30.09F
WORLAND        FAIR      34  28  79 CALM      30.10F
SHERIDAN       CLEAR     36  28  75 NW5       30.05F WCI  32
BUFFALO        FAIR      38  30  73 S7        30.10F WCI  33
GILLETTE       MOCLDY    31  28  89 S28G33    30.13F WCI  17
HULETT         CLOUDY    34  30  86 W5        30.15F WCI  30
NEWCASTLE      CLOUDY    30  27  86 SE9       30.24S WCI  22

$$
WYZ014>020-022>026-101>103-130500-
CENTRAL WYOMING

CITY           SKY/WX    TMP DP  RH WIND       PRES   REMARKS
BIG PINEY      FAIR      26  22  84 CALM      30.27F
PINEDALE         N/A     27  25  93 NW5       30.29S WCI  21
DUBOIS         FAIR      36  14  41 NW17      30.20F WCI  25
LANDER         FAIR      35  28  75 W9        30.13F WCI  28
RIVERTON       FAIR      31  25  78 W5        30.15S WCI  26
CASPER         FAIR      41  25  53 S14       30.14F
DOUGLAS        MOCLDY    31  29  92 SE13      30.19S WCI  21

$$
WYZ021-027>030-104>119-130500-
SOUTHERN WYOMING

CITY           SKY/WX    TMP DP  RH WIND       PRES   REMARKS
EVANSTON       FAIR      37  13  37 CALM      30.29S
KEMMERER       FAIR      32  18  55 CALM      30.28F
FORT BRIDGER   CLEAR     37  19  48 W12       30.30F WCI  30
ROCK SPRINGS   FAIR      37  19  48 SW13      30.27S WCI  29
DIXON          FAIR      21  15  76 CALM      30.33S
RAWLINS        FAIR      39  21  48 SW16      30.25F WCI  30
SARATOGA       FAIR      37  25  60 SW12G20   30.28F WCI  30
LARAMIE        FAIR      44  19  36 S15       30.23S
CHEYENNE       FAIR      31  29  92 S8        30.22F WCI  23
TORRINGTON     CLOUDY    32  30  92 SE14G21   30.22F WCI  22
PINE BLUFFS    CLOUDY    32  32 100 S7        30.26S FOG     WCI  26

$$



USA.gov is the U.S. government's official web portal to all federal, state and local government web resources and services.